Location: Newark
(40.9833°N, 0.0333°W)
Time: 18:24:26
(UTC+00:00)

Transit 4A - Pass Details

Date: 06 November 2020
Orbit: 862 x 982 km, 66.8° (Epoch: 23 November)

Event Time Altitude Azimuth Distance (km) Brightness Sun altitude
Rises 14:53:01 0° 260° (W) 3,626 12.0 17.9°
Reaches altitude 10° 14:56:26 10° 279° (W) 2,702 11.0 17.5°
Maximum altitude 15:00:40 18° 321° (NW) 2,179 9.9 16.9°
Drops below altitude 10° 15:04:58 10° 3° (N) 2,739 10.0 16.2°
Sets 15:08:30 0° 22° (NNE) 3,694 10.5 15.7°
